Location: Unspecified
(51.5147°N, 7.4673°E)
Time: 18:01:56
(UTC+01:00)

Vanguard 1 - Pass Details

Date: 25 February 2026
Orbit: 653 x 3818 km, 34.2° (Epoch: 5 March)

Event Time Altitude Azimuth Distance (km) Brightness Sun altitude
Rises 18:32:22 0° 263° (W) 5,152 16.8 -5.3°
Reaches altitude 10° 18:35:46 10° 253° (WSW) 4,551 15.2 -5.8°
Maximum altitude 18:46:57 31° 197° (SSW) 4,165 13.5 -7.5°
Drops below altitude 10° 19:03:25 10° 146° (SE) 6,703 14.0 -10.1°
Sets 19:10:01 0° 138° (SE) 7,910 14.3 -11.1°
